Regional Weather Roundup
Issued by NWS

Home | Current Version | Previous Version | Text Only | Print | Product List | Glossary Off
Versions: 1 2 3 4 5 6 7 8 9 10 11 12 13 14 15 16 17 18 19 20 21 22 23 24 25 26 27

000
ASUS43 KDMX 190707
RWRIA

WEATHER ROUNDUP FOR IOWA
NATIONAL WEATHER SERVICE DES MOINES IA
200 AM CDT SAT APR 19 2014

NOTE: "FAIR" INDICATES FEW OR NO CLOUDS BELOW 12,000 FEET WITH NO
SIGNIFICANT WEATHER AND/OR OBSTRUCTIONS TO VISIBILITY.

* - THESE STATIONS ARE NOT NWS STATIONS...THUS NOT UNDER NWS
QUALITY CONTROL.  THEY ALSO DO NOT REPORT WEATHER SUCH
AS PRECIPITATION OR FOG.

IAZ001>003-012>014-020>022-031>034-043>046-190800-
   NORTHWEST IOWA

CITY           SKY/WX    TMP DP  RH WIND       PRES   REMARKS
CARROLL *      CLOUDY    50  39  66 SE12      30.10F
CHEROKEE *     MOCLDY    52  37  58 S16G23    30.03F
DENISON *      CLOUDY    54  39  58 S21G28    30.05F
LE MARS *      PTCLDY    55  39  54 S18G25    29.99S
ORANGE CITY *  CLEAR     55  37  50 S16G23    29.99S
SHELDON *      CLOUDY    52  37  58 S23G30    29.98F
SIOUX CITY     PTCLDY    55  40  56 S20       29.99F
SPENCER        PTCLDY    51  36  56 S18       30.04F
STORM LAKE *   PTCLDY    50  37  62 S20       30.06F
$$

IAZ055>058-069>071-079>083-090>094-190800-
   SOUTHWEST IOWA

CITY           SKY/WX    TMP DP  RH WIND       PRES   REMARKS
ATLANTIC *     CLOUDY    54  39  58 S13G18    30.10F
AUDUBON *      CLEAR     50  37  62 S8        30.11F
CLARINDA *     CLEAR     54  41  62 SE8       30.15F
COUNCIL BLFS * CLOUDY    52  41  66 S16       30.07F
CRESTON *      CLEAR     50  41  71 S10       30.16F
HARLAN  *      CLEAR     52  39  62 S14       30.12F
LAMONI         PTCLDY    52  39  61 SE9       30.18S
RED OAK *      PTCLDY    54  41  62 S12       30.12F
SHENANDOAH *   PTCLDY    54  41  62 SE14      30.12F
$$

IAZ047>049-059>061-072>074-084-190800-
   CENTRAL IOWA

CITY           SKY/WX    TMP DP  RH WIND       PRES   REMARKS
AMES           CLOUDY    48  32  53 SE10      30.17S
ANKENY *       CLEAR     50  32  50 SE7       30.17F
CHARITON *     CLOUDY    50  36  57 SE9       30.19S
DES MOINES     CLOUDY    52  34  50 SE10      30.18S
GRINNELL*      MOCLDY    46  32  57 E9        30.21F
KNOXVILLE *    CLEAR     50  30  46 SE9       30.19S
MARSHALLTOWN   CLOUDY    49  31  49 SE15      30.19F
NEWTON *       CLEAR     45  30  57 SE13      30.20S
PELLA *        MOCLDY    48  32  53 SE8       30.21F
PERRY *          N/A     48  36  61 S12       30.15S
$$

IAZ004>006-015-016-023>025-035-036-190800-
   NORTH CENTRAL IOWA

CITY           SKY/WX    TMP DP  RH WIND       PRES   REMARKS
ALGONA *       CLOUDY    48  32  53 SE21G29   30.11S
CLARION *      CLEAR     46  30  53 SE15      30.15S
ESTHERVILLE    CLOUDY    46  34  62 SE21      30.05F
FORT DODGE *   MOCLDY    52  34  50 SE10G20   30.13F
MASON CITY     MOCLDY    42  33  70 SE10      30.18S
FOREST CITY *  CLEAR     45  32  61 SE14      30.15S
IOWA FALLS *     N/A     46  32  57 SE9       30.19S
$$

IAZ007>011-017>019-026>030-037>042-050>054-066-190800-
   NORTHEAST IOWA

CITY           SKY/WX    TMP DP  RH WIND       PRES   REMARKS
CEDAR RAPIDS   PTCLDY    46  35  65 E16       30.25R
CHARLES CITY * CLEAR     45  32  61 SE16      30.21S
CLINTON *      CLEAR     37  30  75 E13       30.35F WCI  29
DECORAH *      PTCLDY    43  32  65 SE14G22   30.24R
DUBUQUE        CLEAR     39  32  76 SE10      30.31R WCI  32
MONTICELLO *   CLEAR     43  36  75 SE17G26   30.29R
OELWEIN *      CLEAR    N/A N/A N/A SE16G26   30.25R
WATERLOO       MOCLDY    48  31  51 SE18      30.21S
$$

IAZ064-065-067-068-078-190800-
   EAST CENTRAL IOWA

CITY           SKY/WX    TMP DP  RH WIND       PRES   REMARKS
DAVENPORT      CLEAR     41  32  70 E18       30.33S
IOWA CITY      PTCLDY    46  36  68 E8        30.28S
MT. PLEASANT * CLEAR     45  30  57 E8        30.25S
MUSCATINE *    CLEAR     46  37  71 SE13G20   30.29S
QUAD CITIES    CLEAR     41  33  73 E12       30.32S
$$

IAZ062-063-075>077-085>089-095>099-190800-
   SOUTHEAST IOWA

CITY           SKY/WX    TMP DP  RH WIND       PRES   REMARKS
BURLINGTON     PTCLDY    48  37  65 SE9       30.26S
FAIRFIELD *    CLEAR     43  30  61 SE8       30.24S
FORT MADISON * CLEAR     48  36  61 E13       30.26F
KEOKUK *       CLEAR     50  32  50 E14       30.25S
OSKALOOSA *      N/A     46  32  57 SE10      30.22F
CENTERVILLE *  CLEAR     46  34  61 SE8       30.22F
OTTUMWA        PTCLDY    48  29  47 SE9       30.21S
WASHINGTON *   CLEAR     43  34  70 E12       30.26R
$$

ABBREVIATIONS USED IN REMARKS
   TC - TEMPERATURES IN CELSIUS
  WCI - WIND CHILL INDEX
   HX - HEAT INDEX
  VSB - VISIBILITY
$$




USA.gov is the U.S. government's official web portal to all federal, state and local government web resources and services.